Location: Bannatyne
(13.0833°N, 59.5333°W)
Time: 18:15:36
(UTC+00:00)

Vanguard 2 Rocket - All Passes

Search period start: 20 January 2020 00:00
Search period end: 30 January 2020 00:00
Orbit: 554 x 3326 km, 32.9° (Epoch: 19 January)

Date Brightness Start Highest point End Pass type
(mag) Time Alt. Az. Time Alt. Az. Time Alt. Az.
20 Jan - 05:41:36 10° SSE 05:42:08 10° SSE 05:42:39 10° SE night (unlit)
20 Jan - 07:50:58 10° WSW 07:54:50 65° NNW 07:59:38 10° NE visible
20 Jan - 10:05:38 10° NW 10:09:12 18° N 10:13:58 10° NE daylight
20 Jan - 12:19:45 10° NW 12:25:48 22° NNE 12:34:40 10° ENE daylight
20 Jan - 14:32:18 10° NW 14:42:58 48° NNE 15:00:08 10° E daylight
20 Jan - 16:45:52 10° WNW 17:00:42 82° SW 17:21:21 10° SE daylight
20 Jan - 19:03:25 10° W 19:19:32 37° SW 19:36:49 10° SSE daylight
20 Jan - 21:37:22 10° SW 21:39:37 10° SSW 21:41:49 10° SSW daylight
21 Jan - 06:51:44 10° SW 06:55:41 57° SE 06:59:46 10° ENE night (unlit)
21 Jan - 09:05:46 10° WNW 09:09:04 20° NNW 09:13:18 10° NNE visible
21 Jan - 11:20:42 10° NNW 11:24:59 17° N 11:30:41 10° NE daylight
21 Jan - 13:33:09 10° NW 13:41:45 35° NNE 13:55:34 10° E daylight
21 Jan - 15:45:53 10° NW 15:58:46 80° NNE 16:18:47 10° ESE daylight
21 Jan - 18:01:22 10° WNW 18:17:08 49° SW 18:36:17 10° SSE daylight
21 Jan - 20:25:28 10° WSW 20:36:48 18° SW 20:47:51 10° S daylight
22 Jan - 05:52:47 10° SSW 05:56:30 26° SSE 05:59:49 10° E night (unlit)
22 Jan - 08:05:51 10° W 08:09:19 29° NNW 08:13:28 10° NE visible
22 Jan - 10:21:34 10° NNW 10:24:24 14° N 10:27:54 10° NNE daylight
22 Jan - 12:34:15 10° NNW 12:40:51 25° NNE 12:50:50 10° ENE daylight
22 Jan - 14:46:22 10° NW 14:57:18 62° NNE 15:15:25 10° ESE daylight
22 Jan - 17:00:22 10° WNW 17:14:52 63° SW 17:34:57 10° SE daylight
22 Jan - 19:20:03 10° W 19:34:07 26° SW 19:49:02 10° SSE daylight
23 Jan - 04:54:17 10° S 04:56:59 14° SSE 04:59:21 10° ESE night (unlit)
23 Jan - 07:06:01 10° WSW 07:09:57 54° NNW 07:14:02 10° NE night (unlit)
23 Jan - 09:21:52 10° NW 09:24:05 13° N 09:26:38 10° NNE visible
23 Jan - 11:35:36 10° NNW 11:40:09 18° NNE 11:46:23 10° NE daylight
23 Jan - 13:47:15 10° NW 13:56:15 45° NNE 14:11:25 10° E daylight
23 Jan - 16:00:09 10° WNW 16:12:55 80° SW 16:32:51 10° SE daylight
23 Jan - 18:16:58 10° W 18:31:34 35° SW 18:48:57 10° SSE daylight
23 Jan - 20:49:10 10° SW 20:52:25 11° SSW 20:55:38 10° SSW daylight
24 Jan - 06:06:19 10° SW 06:10:48 69° SSE 06:14:41 10° ENE night (unlit)
24 Jan - 08:21:33 10° NW 08:24:02 15° NNW 08:26:51 10° NNE visible
24 Jan - 10:37:10 10° NNW 10:39:37 12° N 10:42:32 10° NNE daylight
24 Jan - 12:48:25 10° NW 12:55:34 32° NNE 13:07:02 10° E daylight
24 Jan - 15:00:29 10° NW 15:11:27 81° NNE 15:30:04 10° ESE daylight
24 Jan - 17:15:20 10° WNW 17:29:13 46° SW 17:48:01 10° SSE daylight
24 Jan - 19:38:37 10° WSW 19:49:16 17° SSW 20:00:18 10° S daylight
25 Jan - 05:06:43 10° SSW 05:11:31 33° SSE 05:15:12 10° E night (unlit)
25 Jan - 07:21:05 10° W 07:24:23 24° NNW 07:27:45 10° NNE night (unlit)
25 Jan - 11:49:53 10° NNW 11:55:06 21° NNE 12:02:37 10° ENE daylight
25 Jan - 14:01:16 10° NW 14:10:29 61° NNE 14:26:40 10° ESE daylight
25 Jan - 16:14:42 10° WNW 16:27:13 59° SSW 16:46:22 10° SE daylight
25 Jan - 18:33:44 10° WSW 18:46:26 24° SSW 19:01:01 10° SSE daylight
26 Jan - 04:07:15 10° SSW 04:11:53 21° SSE 04:15:23 10° ESE night (unlit)
26 Jan - 06:20:43 10° WSW 06:25:04 47° NNW 06:28:51 10° NE night (unlit)
26 Jan - 10:51:46 10° NNW 10:54:44 14° NNE 10:58:23 10° NE daylight
26 Jan - 13:02:25 10° NW 13:09:57 43° NNE 13:22:51 10° E daylight
26 Jan - 15:14:47 10° WNW 15:25:39 76° SSW 15:44:05 10° SE daylight
26 Jan - 17:31:04 10° W 17:43:54 32° SSW 18:00:33 10° SSE daylight
26 Jan - 20:03:12 10° SSW 20:05:13 10° SSW 20:07:14 10° SSW daylight
27 Jan - 03:08:04 10° S 03:11:50 14° SSE 03:14:53 10° SE night (unlit)
27 Jan - 05:20:26 10° SW 05:25:53 81° SSE 05:29:53 10° ENE night (unlit)
27 Jan - 07:37:11 10° NW 07:38:59 13° NNW 07:40:50 10° N night (unlit)
27 Jan - 12:03:52 10° NNW 12:09:43 28° NNE 12:18:50 10° E daylight
27 Jan - 14:15:23 10° NW 14:24:37 83° NNE 14:41:16 10° ESE daylight
27 Jan - 16:29:47 10° W 16:41:44 42° SSW 16:59:19 10° SSE daylight
27 Jan - 18:52:33 10° WSW 19:01:52 16° SSW 19:12:02 10° S daylight
28 Jan - 02:10:12 10° SSE 02:11:20 10° SSE 02:12:24 10° SSE visible
28 Jan - 04:20:09 10° SW 04:26:29 44° SSE 04:30:43 10° ENE night (unlit)
28 Jan - 06:35:56 10° W 06:39:23 22° NNW 06:42:31 10° NNE night (unlit)
28 Jan - 11:05:42 10° NNW 11:09:36 17° NNE 11:14:50 10° ENE daylight
28 Jan - 13:16:23 10° NW 13:24:07 60° NNE 13:38:04 10° ESE daylight
28 Jan - 15:29:25 10° WNW 15:40:03 54° SSW 15:57:30 10° SE daylight
28 Jan - 17:48:01 10° WSW 17:59:00 22° SSW 18:12:24 10° SSE daylight
29 Jan - 03:19:54 10° SSW 03:26:43 28° SSE 03:31:15 10° E night (unlit)
29 Jan - 05:34:57 10° WSW 05:40:07 44° NNW 05:43:59 10° NE night (unlit)
29 Jan - 12:17:45 10° NW 12:24:02 40° NNE 12:34:38 10° E daylight
29 Jan - 14:29:43 10° WNW 14:38:53 71° SSW 14:55:13 10° SE daylight
29 Jan - 16:45:39 10° W 16:56:37 29° SSW 17:11:40 10° SSE daylight
